Flag for U.S.A. Weather past 2 weeks in Lancaster, California, U.S.A.

Now
82 °F

Sunny.


Feels Like: 80 °F
Forecast: 69 / 88 °F
Wind: 20 mph from Southwest

Location: Lancaster / Fox Field

Current Time: Sep 18, 2014 at 11:52:11 AM

Latest Report: Sep 18, 2014 at 10:56 AM


Visibility: 10 mi

Pressure: 29.82 "Hg

Humidity: 29%

Dew point: 47 °F

Location of LancasterLocation

Historic Weather in Lancaster — Graph

°F

Lancaster temperature yesterday

Maximum temperature yesterday: 98 °F (at 2:56 PM)
Minimum temperature yesterday: 68 °F (at 5:56 AM)
Average temperature yesterday: 83 °F

Past Weeks' High & Low Weather Summary

 TemperatureHumidityPressure
High100 °F (Sep 13, 2:56 PM)53% (Sep 18, 6:56 AM)30.00 "Hg (Sep 18, 6:56 AM)
Low50 °F (Sep 10, 6:56 AM)4% (Sep 9, 1:56 PM)29.64 "Hg (Sep 3, 3:56 PM)
Average81 °F25%29.83 "Hg
* Reported Sep 3 10:56 AM — Sep 18 10:56 AM, Lancaster, Weather by CustomWeather, © 2014

Note: Actual official high and low records may vary slightly from our data, if they occured in-between our weather recording intervals... More about our weather records

Advertising

Lancaster weather history for previous 24 hours

 ConditionsComfort  
Time TempWeatherWind HumidityBarometerVisibility
10:56 AM
Sep 18
82 °FSunny.20 mph29%29.82 "Hg10 mi
9:56 AM80 °FSunny.15 mph28%29.83 "Hg10 mi
8:56 AM77 °FSunny.16 mph33%29.83 "Hg10 mi
7:56 AM72 °FSunny.14 mph43%29.82 "Hg10 mi
6:56 AM67 °FClear.12 mph53%29.82 "Hg10 mi
5:56 AM69 °FClear.15 mph49%29.79 "Hg10 mi
4:56 AM71 °FClear.13 mph41%29.77 "Hg10 mi
3:56 AM68 °FClear.10 mph45%29.77 "Hg10 mi
2:56 AM72 °FClear.3 mph41%29.77 "Hg10 mi
1:56 AM75 °FClear.7 mph37%29.78 "Hg10 mi
12:56 AM75 °FClear.7 mph37%29.77 "Hg10 mi
11:56 PM
Sep 17
77 °FClear.10 mph35%29.77 "Hg10 mi
10:56 PM79 °FClear.10 mph32%29.77 "Hg10 mi
9:56 PM80 °FClear.9 mph30%29.76 "Hg10 mi
8:56 PM81 °FClear.14 mph29%29.76 "Hg10 mi
7:56 PM83 °FClear.10 mph27%29.75 "Hg10 mi
6:56 PM87 °FSunny.15 mph26%29.74 "Hg10 mi
5:56 PM91 °FSunny.20 mph22%29.72 "Hg10 mi
4:56 PM94 °FSunny.20 mph22%29.71 "Hg10 mi
3:56 PM97 °FSunny.20 mph22%29.71 "Hg10 mi
2:56 PM98 °FSunny.17 mph21%29.71 "Hg10 mi
1:56 PM97 °FSunny.5 mph20%29.73 "Hg10 mi
12:56 PM96 °FSunny.7 mph22%29.76 "Hg10 mi
11:56 AM93 °FSunny.No wind26%29.78 "Hg10 mi
Weather by CustomWeather, © 2014

See weather overviewHow to use our weather pages